This demonstration page uses our WeatherBlox Daily Observations layout. Learn more.

40.92945, -100.16068

Hourly Observations for December 22, 2015

Temp ( °F °C ) Dew Point ( °F °C ) Humidity (%) Winds ( mph kmh ) Pressure ( in mb ) Visibility ( mi km ) Precip ( " mm )
12:15 am 00:15 Clear 23 -4.8 21 -6 91 91 SE 8 13 29.83 1010 10 16.0934 N/A
12:35 am 00:35 Clear 26 -3.2 23 -4.8 89 89 SSE 9 15 29.83 1010 10 16.0934 N/A
12:55 am 00:55 Clear 26 -3.6 23 -5.2 89 89 SSE 8 13 29.83 1010 10 16.0934 N/A
1:15 am 01:15 Clear 30 -1.2 25 -3.7 83 83 SE 8 13 29.77 1008 10 16.0934 N/A
1:35 am 01:35 Clear 30 -0.9 25 -4 80 80 SE 6 9 29.77 1008 10 16.0934 N/A
1:55 am 01:55 Clear 31 -0.6 26 -3.5 81 81 ESE 7 11 29.74 1007 10 16.0934 N/A
2:15 am 02:15 Clear 31 -0.5 26 -3.6 80 80 ESE 8 13 29.68 1005 10 16.0934 N/A
2:35 am 02:35 Clear 30 -1 25 -3.7 82 82 SE 6 9 29.71 1006 10 16.0934 N/A
2:55 am 02:55 Clear 30 -1.1 26 -3.3 85 85 SE 7 11 29.71 1006 10 16.0934 N/A
3:15 am 03:15 Clear 34 1.1 31 -0.5 89 89 SSE 10 17 29.65 1004 10 16.0934 N/A
3:35 am 03:35 Clear 35 1.7 31 -0.3 87 87 SSE 14 22 29.65 1004 10 16.0934 N/A
3:55 am 03:55 Clear 35 1.5 31 -0.5 87 87 SSE 13 20 29.65 1004 10 16.0934 N/A
4:15 am 04:15 Clear 34 1.3 31 -0.5 88 88 SSE 13 20 29.62 1003 10 16.0934 N/A
4:35 am 04:35 Clear 35 1.5 31 -0.4 87 87 S 14 22 29.62 1003 10 16.0934 N/A
4:55 am 04:55 Clear 34 1.2 31 -0.5 89 89 S 13 20 29.59 1002 10 16.0934 N/A
5:15 am 05:15 Clear 34 1.1 31 -0.5 89 89 S 13 20 29.59 1002 10 16.0934 N/A
5:35 am 05:35 Clear 34 1.1 31 -0.5 89 89 SSE 10 17 29.59 1002 10 16.0934 N/A
5:55 am 05:55 Clear 34 1 31 -0.5 90 90 SSE 7 11 29.59 1002 10 16.0934 N/A
6:15 am 06:15 Clear 33 0.8 31 -0.5 91 91 SSE 10 17 29.56 1001 10 16.0934 N/A
6:35 am 06:35 Clear 34 0.9 31 -0.5 90 90 SSE 9 15 29.56 1001 10 16.0934 N/A
6:55 am 06:55 Clear 33 0.6 31 -0.7 91 91 SE 9 15 29.53 1000 10 16.0934 N/A
7:15 am 07:15 Clear 32 0.2 30 -0.9 92 92 ESE 7 11 29.53 1000 10 16.0934 N/A
7:35 am 07:35 Clear 32 0 30 -1.2 92 92 E 6 9 29.56 1001 10 16.0934 N/A
7:55 am 07:55 Clear 32 0.2 31 -0.8 93 93 SSE 13 20 29.53 1000 10 16.0934 N/A
8:15 am 08:15 Sunny 32 0.1 30 -0.9 93 93 ESE 7 11 29.53 1000 10 16.0934 N/A
8:35 am 08:35 Sunny 33 0.3 31 -0.7 93 93 SE 6 9 29.53 1000 10 16.0934 N/A
8:55 am 08:55 Sunny 33 0.5 31 -0.6 92 92 SSE 7 11 29.5 999 10 16.0934 N/A
9:15 am 09:15 Sunny 33 0.4 31 -0.6 93 93 SE 6 9 29.5 999 10 16.0934 N/A
9:35 am 09:35 Sunny 34 1.1 32 -0.1 92 92 SSE 12 19 29.44 997 10 16.0934 N/A
9:55 am 09:55 Sunny 34 1.2 32 -0.2 91 91 S 7 11 29.5 999 10 16.0934 N/A
10:15 am 10:15 Sunny 36 2.4 33 0.3 86 86 S 13 20 29.47 998 10 16.0934 N/A
10:35 am 10:35 Sunny 37 2.9 33 0.5 84 84 S 14 22 29.47 998 10 16.0934 N/A
10:55 am 10:55 Sunny 38 3.5 33 0.7 82 82 S 8 13 29.47 998 10 16.0934 N/A
11:15 am 11:15 Sunny 38 3.4 33 0.5 82 82 S 10 17 29.47 998 10 16.0934 N/A
11:35 am 11:35 Sunny 39 3.7 33 0.6 80 80 S 9 15 29.44 997 10 16.0934 N/A
11:55 am 11:55 Sunny 39 3.7 33 0.6 80 80 S 8 13 29.44 997 10 16.0934 N/A
12:15 pm 12:15 Sunny 38 3.5 33 0.6 82 82 S 8 13 29.44 997 10 16.0934 N/A
12:35 pm 12:35 Sunny 38 3.5 33 0.7 82 82 S 7 11 29.38 995 10 16.0934 N/A
12:55 pm 12:55 Sunny 39 3.7 33 0.8 82 82 S 3 6 29.38 995 10 16.0934 N/A
1:15 pm 13:15 Sunny 40 4.7 34 1.1 78 78 WSW 7 11 29.38 995 10 16.0934 N/A
1:35 pm 13:35 Sunny 41 5 34 1.2 77 77 WNW 9 15 29.38 995 10 16.0934 N/A
1:55 pm 13:55 Sunny 42 5.5 35 1.4 75 75 W 6 9 29.38 995 10 16.0934 N/A
2:15 pm 14:15 Sunny 43 6 35 1.8 75 75 NNW 5 7 29.38 995 10 16.0934 N/A
2:35 pm 14:35 Sunny 43 6 35 1.7 74 74 WNW 5 7 29.38 995 10 16.0934 N/A
2:55 pm 14:55 Sunny 43 5.9 35 1.8 75 75 S 7 11 29.38 995 10 16.0934 N/A
3:15 pm 15:15 Sunny 41 5.2 35 1.5 77 77 S 3 6 29.38 995 10 16.0934 N/A
3:35 pm 15:35 Sunny 41 5.2 35 1.7 78 78 SSE 5 7 29.38 995 10 16.0934 N/A
3:55 pm 15:55 Sunny 41 5 35 1.7 79 79 Calm 29.38 995 10 16.0934 N/A
4:15 pm 16:15 Sunny 40 4.7 35 1.6 81 81 Calm 29.38 995 7 11.26538 N/A
4:35 pm 16:35 Sunny 39 4.1 35 1.4 83 83 ESE 3 6 29.38 995 10 16.0934 N/A
4:55 pm 16:55 Sunny 39 3.8 35 1.5 85 85 ESE 3 6 29.38 995 10 16.0934 N/A
5:15 pm 17:15 Partly Cloudy 39 3.8 34 1.3 84 84 SE 6 9 29.38 995 10 16.0934 N/A
5:35 pm 17:35 Mostly Cloudy 39 3.8 34 1.3 84 84 SE 7 11 29.38 995 10 16.0934 N/A
5:55 pm 17:55 Cloudy 38 3.6 34 1.1 84 84 ESE 5 7 29.38 995 10 16.0934 N/A
6:15 pm 18:15 Mostly Cloudy 38 3.2 34 1 86 86 ESE 3 6 29.41 996 10 16.0934 N/A
6:35 pm 18:35 Mostly Cloudy 36 2.2 33 0.3 87 87 Calm 29.41 996 10 16.0934 N/A
6:55 pm 18:55 Cloudy 35 1.9 32 0.2 89 89 Calm 29.41 996 10 16.0934 N/A
7:15 pm 19:15 Mostly Cloudy 35 1.5 32 0.1 91 91 Calm 29.41 996 10 16.0934 N/A
7:35 pm 19:35 Partly Cloudy 34 1 32 0 93 93 E 3 6 29.41 996 10 16.0934 N/A
7:55 pm 19:55 Clear 33 0.8 32 0 94 94 Calm 29.41 996 10 16.0934 N/A
8:15 pm 20:15 Clear 33 0.6 31 -0.3 94 94 Calm 29.41 996 10 16.0934 N/A
8:35 pm 20:35 Clear 33 0.6 32 -0.1 95 95 Calm 29.41 996 10 16.0934 N/A
8:55 pm 20:55 Clear 32 0 31 -0.7 95 95 Calm 29.44 997 10 16.0934 N/A
9:15 pm 21:15 Clear 32 0 31 -0.6 96 96 Calm 29.44 997 10 16.0934 N/A
9:35 pm 21:35 Clear 32 0 31 -0.8 94 94 Calm 29.44 997 10 16.0934 N/A
9:55 pm 21:55 Clear 32 0 31 -0.5 96 96 N 3 6 29.44 997 10 16.0934 N/A
10:15 pm 22:15 Clear 32 0.1 31 -0.5 96 96 N 3 6 29.44 997 10 16.0934 N/A
10:35 pm 22:35 Clear 32 0.2 32 -0.2 97 97 N 6 9 29.44 997 10 16.0934 N/A
10:55 pm 22:55 Clear 33 0.5 32 -0.1 96 96 NNW 6 9 29.41 996 10 16.0934 N/A
11:15 pm 23:15 Clear 33 0.8 32 0 94 94 NNW 6 9 29.41 996 10 16.0934 N/A
11:35 pm 23:35 Clear 33 0.8 32 0 94 94 NW 8 13 29.41 996 10 16.0934 N/A
11:55 pm 23:55 Clear 33 0.8 32 0 94 94 NNW 6 9 29.41 996 10 16.0934 N/A

Powered by AerisWeather